This demonstration page uses our WeatherBlox Daily Observations layout. Learn more.

Left ArrowRight Arrow

Hourly Observations for May 21, 2020

Temp ( °F °C ) Dew Point ( °F °C ) Humidity (%) Winds ( mph kmh ) Pressure ( in mb ) Visibility ( mi km ) Precip ( " mm )
12:15 am 00:15 Clear 60 15.5 55 12.6 83 83 SE 21 33 29.83 1010 10 16.0934 0 0
12:35 am 00:35 Clear 59 15.2 55 12.5 84 84 SE 17 28 29.84 1010 10 16.0934 0 0
12:55 am 00:55 Clear 59 15 55 12.5 85 85 SE 18 30 29.84 1010 10 16.0934 0 0
1:15 am 01:15 Clear 59 15 55 12.5 85 85 SE 17 28 29.85 1011 10 16.0934 0 0
1:35 am 01:35 Mostly Cloudy 59 15 55 12.6 86 86 SE 17 28 29.84 1010 10 16.0934 0 0
1:55 am 01:55 Cloudy 59 14.8 55 12.6 87 87 SE 18 30 29.84 1011 10 16.0934 0 0
2:15 am 02:15 Cloudy 59 15 55 12.7 86 86 SSE 18 30 29.85 1011 10 16.0934 0 0
2:35 am 02:35 Cloudy 59 15.2 55 13 87 87 SE 21 33 29.85 1011 10 16.0934 0 0
2:55 am 02:55 Cloudy 60 15.3 55 13 86 86 SSE 18 30 29.86 1011 10 16.0934 0 0
3:15 am 03:15 Cloudy 60 15.3 55 12.9 86 86 SSE 16 26 29.87 1011 10 16.0934 0 0
3:35 am 03:35 Cloudy 60 15.4 55 13 86 86 SSE 14 22 29.88 1012 10 16.0934 0 0
3:55 am 03:55 Cloudy 60 15.4 55 13 86 86 SSE 13 20 29.88 1012 10 16.0934 0 0
4:15 am 04:15 Cloudy 60 15.4 55 12.9 85 85 SE 12 19 29.88 1012 10 16.0934 0 0
4:35 am 04:35 Cloudy 59 15.2 55 12.8 86 86 SE 12 19 29.89 1012 10 16.0934 0 0
4:55 am 04:55 Cloudy 59 15.1 55 12.9 87 87 ESE 10 17 29.9 1012 10 16.0934 0 0
5:15 am 05:15 Cloudy with Mist and Fog 59 14.8 56 13.1 90 90 ESE 12 19 29.89 1012 5 8.0467 0 0
5:35 am 05:35 Cloudy with Drizzle 58 14.5 56 13.3 93 93 ESE 14 22 29.88 1012 4 6.43736 0 0
5:55 am 05:55 Cloudy 58 14.5 56 13.5 94 94 SE 15 24 29.87 1012 7 11.26538 0 0
6:15 am 06:15 Cloudy 58 14.3 56 13.5 95 95 ESE 15 24 29.87 1011 7 11.26538 0 0
6:35 am 06:35 Cloudy with Nearby Thunderstorms 58 14.3 56 13.5 95 95 ESE 15 24 29.86 1011 7 11.26538 0 0
6:55 am 06:55 Cloudy 58 14.4 56 13.6 95 95 ESE 17 28 29.84 1011 10 16.0934 0 0
7:15 am 07:15 Cloudy 58 14.5 56 13.6 94 94 ESE 20 31 29.82 1010 10 16.0934 0 0
7:35 am 07:35 Cloudy 58 14.5 57 13.7 95 95 SE 21 33 29.83 1010 10 16.0934 0 0
7:55 am 07:55 Cloudy 58 14.5 56 13.6 94 94 SE 20 31 29.82 1010 7 11.26538 0 0
8:15 am 08:15 Cloudy with Light Thunderstorms 58 14.5 56 13.5 94 94 SSE 8 13 29.86 1011 7 11.26538 0 0
8:35 am 08:35 Cloudy with Heavy Thunderstorms 58 14.3 56 13.5 95 95 SE 7 11 29.85 1011 4 6.43736 0.13 3.302
8:55 am 08:55 Cloudy with Light Rain 58 14.4 56 13.6 95 95 SE 9 15 29.85 1011 4 6.43736 0.16 4.064
9:15 am 09:15 Cloudy 58 14.2 56 13.5 96 96 ESE 8 13 29.86 1011 1.25 2.011675 0.25 6.35
9:35 am 09:35 Cloudy 58 14.2 56 13.6 96 96 SE 10 17 29.87 1011 2 3.21868 0.38 9.652
9:55 am 09:55 Cloudy with Heavy Rain 58 14.3 57 13.7 96 96 SE 8 13 29.86 1011 2.5 4.02335 0.48 12.192
10:15 am 10:15 Cloudy with Rain 58 14.3 57 13.7 96 96 ESE 8 13 29.87 1011 1.75 2.816345 0.13 3.302
10:35 am 10:35 Cloudy with Rain 58 14.3 57 13.8 97 97 ESE 8 13 29.87 1011 3 4.82802 0.17 4.318
10:55 am 10:55 Cloudy with Drizzle 58 14.5 57 14 97 97 E 9 15 29.86 1011 2.5 4.02335 0.21 5.334
11:15 am 11:15 Cloudy 58 14.5 57 14 97 97 E 10 17 29.86 1011 3 4.82802 0.01 0.254
11:35 am 11:35 Cloudy with Rain 58 14.5 57 14 97 97 E 13 20 29.86 1011 3 4.82802 0.05 1.27
11:55 am 11:55 Cloudy with Light Rain 58 14.6 57 14.1 97 97 ESE 12 19 29.86 1011 3 4.82802 0.09 2.286
12:15 pm 12:15 Cloudy 59 14.9 58 14.4 97 97 ESE 12 19 29.86 1011 2 3.21868 0.04 1.016
12:35 pm 12:35 Cloudy with Light Rain 59 15 58 14.5 97 97 ESE 14 22 29.86 1011 2 3.21868 0.08 2.032
12:55 pm 12:55 Cloudy with Light Rain 59 15.1 58 14.6 97 97 ESE 13 20 29.86 1011 1.75 2.816345 0.12 3.048
1:15 pm 13:15 Cloudy with Rain 60 15.3 59 15 98 98 ESE 14 22 29.86 1011 1.75 2.816345 0.05 1.27
1:35 pm 13:35 Cloudy with Rain 60 15.5 59 15 97 97 ESE 14 22 29.85 1011 2 3.21868 0.1 2.54
1:55 pm 13:55 Cloudy with Rain 60 15.8 60 15.3 97 97 ESE 15 24 29.83 1010 2 3.21868 0.13 3.302
2:15 pm 14:15 Cloudy 60 15.7 59 15.1 96 96 ESE 15 24 29.83 1010 2.5 4.02335 0.02 0.508
2:35 pm 14:35 Cloudy with Rain 61 16 60 15.3 96 96 ESE 16 26 29.83 1010 2 3.21868 0.06 1.524
2:55 pm 14:55 Cloudy with Light Rain 61 16 60 15.3 96 96 E 13 20 29.82 1010 3 4.82802 0.09 2.286
3:55 pm 15:55 Cloudy with Rain 61 15.9 59 15.2 96 96 E 13 20 29.82 1010 2 3.21868 0.11 2.794
4:15 pm 16:15 Cloudy with Light Rain 60 15.7 59 15.2 97 97 E 10 17 29.82 1010 2 3.21868 0.03 0.762
4:35 pm 16:35 Cloudy with Light Rain 60 15.7 59 15.2 97 97 E 9 15 29.82 1010 1.5 2.41401 0.03 0.762
4:55 pm 16:55 Cloudy with Rain 60 15.8 60 15.3 97 97 E 10 17 29.82 1010 1.25 2.011675 0.04 1.016
5:15 pm 17:15 Cloudy with Rain 61 16 60 15.5 97 97 E 9 15 29.82 1010 1.25 2.011675 0.01 0.254
5:35 pm 17:35 Cloudy with Light Rain 61 16 60 15.6 97 97 E 8 13 29.82 1010 1.5 2.41401 0.03 0.762
5:55 pm 17:55 Cloudy with Rain 61 16.1 60 15.7 97 97 E 9 15 29.82 1010 1.25 2.011675 0.05 1.27
6:15 pm 18:15 Cloudy with Light Rain 61 16.2 60 15.8 97 97 E 10 17 29.82 1010 1.25 2.011675 0.02 0.508
6:35 pm 18:35 Cloudy with Light Rain 61 16.3 61 16 98 98 E 8 13 29.82 1010 2 3.21868 0.02 0.508
6:55 pm 18:55 Cloudy with Light Rain 62 16.5 61 16 97 97 ESE 8 13 29.82 1010 3 4.82802 0.03 0.762
7:15 pm 19:15 Cloudy with Mist and Fog 62 16.6 61 16.1 97 97 ESE 13 20 29.82 1010 4 6.43736 0 0
7:35 pm 19:35 Cloudy with Mist and Fog 62 16.6 61 16 96 96 ESE 13 20 29.81 1009 4 6.43736 0 0
7:55 pm 19:55 Cloudy with Light Rain 62 16.5 61 16 97 97 ESE 12 19 29.82 1010 7 11.26538 0 0
8:15 pm 20:15 Cloudy with Mist and Fog 62 16.5 61 16 97 97 ESE 16 26 29.82 1010 5 8.0467 0 0
8:35 pm 20:35 Cloudy with Mist and Fog 62 16.7 61 16.1 96 96 ESE 17 28 29.83 1010 5 8.0467 0 0
8:55 pm 20:55 Cloudy with Mist and Fog 62 16.6 61 16 96 96 ESE 16 26 29.82 1010 5 8.0467 0 0
9:15 pm 21:15 Cloudy with Mist and Fog 62 16.6 61 16 96 96 ESE 16 26 29.82 1010 5 8.0467 0 0
9:35 pm 21:35 Cloudy with Mist and Fog 62 16.5 61 16 97 97 SE 15 24 29.83 1010 5 8.0467 0 0
9:55 pm 21:55 Cloudy 62 16.5 60 15.8 96 96 ESE 14 22 29.83 1010 7 11.26538 0 0
10:15 pm 22:15 Cloudy with Mist and Fog 62 16.5 60 15.8 96 96 ESE 10 17 29.85 1011 5 8.0467 0 0
10:35 pm 22:35 Cloudy with Mist and Fog 62 16.5 60 15.8 96 96 ESE 14 22 29.85 1011 5 8.0467 0 0
10:55 pm 22:55 Cloudy with Mist and Fog 62 16.5 61 15.9 96 96 ESE 14 22 29.85 1011 5 8.0467 0 0
11:15 pm 23:15 Cloudy with Mist and Fog 62 16.5 61 16 97 97 SE 14 22 29.85 1011 5 8.0467 0 0
11:35 pm 23:35 Cloudy with Mist and Fog 62 16.5 61 16 97 97 SE 14 22 29.85 1011 5 8.0467 0 0
11:55 pm 23:55 Cloudy with Mist and Fog 62 16.5 61 16 97 97 SE 16 26 29.85 1011 5 8.0467 0 0

Powered by AerisWeather